Tianmu-1 qixiang xingzou 05

operational
NORAD ID: 55975 Int'l Des: 2023-039 Owner: TIANMU Country: CN
LEOCIRCULARRETROGRADESSO

Über Tianmu-1 qixiang xingzou 05

Beschreibung wird geladen...

Live-Position

3D-Globus wird geladen...

Nächste Überflüge

Höhenverlauf

Altitude vs Time

uPlot chart will show altitude changes over time

Zweizeiliger Elementsatz

1 55975U 23039C 26061.59729956 .00019364 00000-0 42883-3 0 9996
2 55975 97.5141 231.3321 0003695 139.5320 220.6203 15.43821256164352
Epoch: 2. März 2026 • Age: 28 hours

Aktueller Status

Höhe 441.7 km
Geschwindigkeit 7.65 km/s
Subsatellitenpunkt -20.92°S, 166.61°W
Startdatum 22. März 2023
Alter 2.9 years
Typ other

Technische Details

Klassifizierung Payload
Masse 50.00 kg
Trockenmasse 50.00 kg
Gesamtmasse 50.00 kg
Länge 1.50 m
Durchmesser 1.00 m
Spannweite 1.50 m
Form Box
Hersteller TIANMU
Bus-Typ Tianmu
Phasenstatus In Orbit
Besitzer/Staat TIANMU/CN

Große Konstellationen

Loading constellations...